Time,TemperatureF,DewpointF,PressureIn,WindDirection,WindDirectionDegrees,WindSpeedMPH,WindSpeedGustMPH,Humidity,HourlyPrecipIn,Conditions,Clouds,dailyrainin,SoftwareType,DateUTC
2013-06-23 00:01:00,70.7,70.4,30.07,SW,223,6.9,6.9,99,0.01,RA,,0.00,WeatherDisplay:10.37,2013-06-23 04:01:00,
2013-06-23 00:02:00,70.7,70.4,30.07,SW,236,9.2,9.2,99,0.01,RA,,0.00,WeatherDisplay:10.37,2013-06-23 04:02:00,
2013-06-23 00:04:00,70.6,70.3,30.07,SSW,209,6.9,6.9,99,0.01,RA,,0.00,WeatherDisplay:10.37,2013-06-23 04:04:00,
2013-06-23 00:09:00,70.5,70.2,30.08,SW,220,6.9,6.9,99,0.01,RA,,0.00,WeatherDisplay:10.37,2013-06-23 04:09:00,
2013-06-23 00:14:00,70.5,70.2,30.08,SSW,200,6.0,6.0,99,0.01,,,0.00,WeatherDisplay:10.37,2013-06-23 04:14:00,
2013-06-23 00:19:00,70.5,70.2,30.08,SSW,198,6.9,6.9,99,0.01,,,0.00,WeatherDisplay:10.37,2013-06-23 04:19:00,
2013-06-23 00:24:00,70.5,70.2,30.08,SW,227,7.0,7.0,99,0.01,,,0.00,WeatherDisplay:10.37,2013-06-23 04:24:00,
2013-06-23 00:29:00,70.4,70.1,30.08,SW,215,9.2,9.2,99,0.01,,,0.00,WeatherDisplay:10.37,2013-06-23 04:29:00,
2013-06-23 00:34:00,70.4,70.1,30.08,SW,216,10.4,10.4,99,0.01,,,0.00,WeatherDisplay:10.37,2013-06-23 04:34:00,
2013-06-23 00:39:00,70.4,70.1,30.08,South,171,8.0,8.0,99,0.01,,,0.00,WeatherDisplay:10.37,2013-06-23 04:39:00,
2013-06-23 00:44:00,70.4,70.1,30.08,SSW,205,9.0,9.0,99,0.01,,,0.00,WeatherDisplay:10.37,2013-06-23 04:44:00,
2013-06-23 00:49:00,70.4,70.1,30.08,SW,221,5.8,5.8,99,0.01,,,0.00,WeatherDisplay:10.37,2013-06-23 04:49:00,
2013-06-23 00:55:00,70.4,70.1,30.09,SSW,206,6.9,6.9,99,0.00,,,0.00,WeatherDisplay:10.37,2013-06-23 04:55:00,
2013-06-23 01:00:00,70.4,70.1,30.09,SW,229,4.6,4.6,99,0.00,,,0.00,WeatherDisplay:10.37,2013-06-23 05:00:00,
2013-06-23 01:05:00,70.4,70.1,30.09,SW,215,6.9,6.9,99,0.00,,,0.00,WeatherDisplay:10.37,2013-06-23 05:05:00,
2013-06-23 01:10:00,70.5,70.2,30.09,SSW,200,7.0,7.0,99,0.00,,,0.00,WeatherDisplay:10.37,2013-06-23 05:10:00,
2013-06-23 01:15:00,70.5,70.2,30.09,WSW,245,4.6,4.6,99,0.00,,,0.00,WeatherDisplay:10.37,2013-06-23 05:15:00,
2013-06-23 01:20:00,70.5,70.2,30.09,SW,229,3.5,3.5,99,0.00,,,0.00,WeatherDisplay:10.37,2013-06-23 05:20:00,
2013-06-23 01:25:00,70.5,70.2,30.09,SW,217,6.9,6.9,99,0.00,,,0.00,WeatherDisplay:10.37,2013-06-23 05:25:00,
2013-06-23 01:30:00,70.5,70.2,30.09,WSW,241,10.0,10.0,99,0.00,,,0.00,WeatherDisplay:10.37,2013-06-23 05:30:00,
2013-06-23 01:35:00,70.5,70.2,30.09,SW,221,6.0,6.0,99,0.00,,,0.00,WeatherDisplay:10.37,2013-06-23 05:35:00,
2013-06-23 01:40:00,70.4,70.1,30.09,WSW,238,3.5,3.5,99,0.00,,,0.00,WeatherDisplay:10.37,2013-06-23 05:40:00,
2013-06-23 01:45:00,70.5,70.2,30.09,SSW,206,4.0,4.0,99,0.00,,,0.00,WeatherDisplay:10.37,2013-06-23 05:45:00,
2013-06-23 01:50:00,70.4,70.1,30.09,SSW,211,3.5,3.5,99,0.00,,,0.00,WeatherDisplay:10.37,2013-06-23 05:50:00,
2013-06-23 01:55:00,70.4,70.1,30.09,WSW,242,5.8,5.8,99,0.00,,,0.00,WeatherDisplay:10.37,2013-06-23 05:55:00,
2013-06-23 02:00:00,70.4,70.1,30.09,WSW,241,3.5,3.5,99,0.00,,,0.00,WeatherDisplay:10.37,2013-06-23 06:00:00,
2013-06-23 02:01:00,70.4,70.1,30.09,WSW,251,6.9,6.9,99,0.00,,,0.00,WeatherDisplay:10.37,2013-06-23 06:01:00,
2013-06-23 02:06:00,70.4,70.1,30.09,WSW,243,4.0,4.0,99,0.00,,,0.00,WeatherDisplay:10.37,2013-06-23 06:06:00,
2013-06-23 02:11:00,70.4,70.1,30.09,West,261,4.0,4.0,99,0.00,,,0.00,WeatherDisplay:10.37,2013-06-23 06:11:00,
2013-06-23 02:16:00,70.3,70.0,30.09,SW,236,3.5,3.5,99,0.00,,,0.00,WeatherDisplay:10.37,2013-06-23 06:16:00,
2013-06-23 02:21:00,70.3,70.0,30.09,SW,222,3.5,3.5,99,0.00,,,0.00,WeatherDisplay:10.37,2013-06-23 06:21:00,
2013-06-23 02:26:00,70.2,69.9,30.08,WSW,237,3.5,3.5,99,0.00,,,0.00,WeatherDisplay:10.37,2013-06-23 06:26:00,
2013-06-23 02:31:00,70.2,69.9,30.08,SSW,213,5.8,5.8,99,0.00,,,0.00,WeatherDisplay:10.37,2013-06-23 06:31:00,
2013-06-23 02:36:00,70.2,69.9,30.08,SW,236,3.5,3.5,99,0.00,,,0.00,WeatherDisplay:10.37,2013-06-23 06:36:00,
2013-06-23 02:41:00,70.2,69.9,30.08,SW,236,3.5,3.5,99,0.00,,,0.00,WeatherDisplay:10.37,2013-06-23 06:41:00,
2013-06-23 02:46:00,70.2,69.9,30.08,SW,236,1.0,0.0,99,0.00,,,0.00,WeatherDisplay:10.37,2013-06-23 06:46:00,
2013-06-23 02:51:00,70.3,70.0,30.08,SW,236,1.2,0.0,99,0.00,,,0.00,WeatherDisplay:10.37,2013-06-23 06:51:00,
2013-06-23 02:57:00,70.3,70.0,30.08,SW,236,1.2,0.0,99,0.00,,,0.00,WeatherDisplay:10.37,2013-06-23 06:57:00,
2013-06-23 03:02:00,70.3,70.0,30.08,SW,236,3.5,3.5,99,0.00,,,0.00,WeatherDisplay:10.37,2013-06-23 07:02:00,
2013-06-23 03:07:00,70.3,70.0,30.08,SW,236,4.6,4.6,99,0.00,,,0.00,WeatherDisplay:10.37,2013-06-23 07:07:00,
2013-06-23 03:12:00,70.3,70.0,30.08,SW,236,1.2,1.2,99,0.00,,,0.00,WeatherDisplay:10.37,2013-06-23 07:12:00,
2013-06-23 03:17:00,70.3,70.0,30.08,SW,236,0.0,0.0,99,0.00,,,0.00,WeatherDisplay:10.37,2013-06-23 07:17:00,
2013-06-23 03:22:00,70.3,70.0,30.09,SW,236,2.0,2.0,99,0.00,,,0.00,WeatherDisplay:10.37,2013-06-23 07:22:00,
2013-06-23 03:27:00,70.3,70.0,30.09,SW,236,1.2,1.2,99,0.00,,,0.00,WeatherDisplay:10.37,2013-06-23 07:27:00,
2013-06-23 03:32:00,70.2,69.9,30.09,SW,236,0.0,0.0,99,0.00,,,0.00,WeatherDisplay:10.37,2013-06-23 07:32:00,
2013-06-23 03:37:00,70.3,70.0,30.09,SW,236,0.0,0.0,99,0.00,,,0.00,WeatherDisplay:10.37,2013-06-23 07:37:00,
2013-06-23 03:42:00,70.2,69.9,30.09,SW,236,2.0,2.0,99,0.00,,,0.00,WeatherDisplay:10.37,2013-06-23 07:42:00,
2013-06-23 03:47:00,70.2,69.9,30.09,SW,236,1.2,0.0,99,0.00,,,0.00,WeatherDisplay:10.37,2013-06-23 07:47:00,
2013-06-23 03:52:00,70.1,69.8,30.09,SW,236,0.0,0.0,99,0.00,,,0.00,WeatherDisplay:10.37,2013-06-23 07:52:00,
2013-06-23 03:57:00,70.1,69.8,30.08,SW,236,3.5,3.5,99,0.00,,,0.00,WeatherDisplay:10.37,2013-06-23 07:57:00,
2013-06-23 04:02:00,70.1,69.8,30.09,SW,236,1.2,1.2,99,0.00,,,0.00,WeatherDisplay:10.37,2013-06-23 08:02:00,
2013-06-23 04:07:00,70.1,69.8,30.09,SW,236,3.5,3.5,99,0.00,,,0.00,WeatherDisplay:10.37,2013-06-23 08:07:00,
2013-06-23 04:12:00,70.1,69.8,30.09,SW,236,1.2,0.0,99,0.00,,,0.00,WeatherDisplay:10.37,2013-06-23 08:12:00,
2013-06-23 04:17:00,70.1,69.8,30.09,SW,236,0.0,0.0,99,0.00,,,0.00,WeatherDisplay:10.37,2013-06-23 08:17:00,
2013-06-23 04:22:00,70.0,69.7,30.09,SW,236,0.0,0.0,99,0.00,,,0.00,WeatherDisplay:10.37,2013-06-23 08:22:00,
2013-06-23 04:27:00,70.0,69.7,30.09,SW,236,3.5,3.5,99,0.00,,,0.00,WeatherDisplay:10.37,2013-06-23 08:27:00,
2013-06-23 04:32:00,70.0,69.7,30.09,SW,236,3.5,3.5,99,0.00,,,0.00,WeatherDisplay:10.37,2013-06-23 08:32:00,
2013-06-23 04:37:00,70.0,69.7,30.09,SW,236,3.5,3.5,99,0.00,,,0.00,WeatherDisplay:10.37,2013-06-23 08:37:00,
2013-06-23 04:42:00,70.0,69.7,30.09,SW,236,3.5,3.5,99,0.00,,,0.00,WeatherDisplay:10.37,2013-06-23 08:42:00,
2013-06-23 04:47:00,70.0,69.7,30.09,SW,236,0.0,0.0,99,0.00,,,0.00,WeatherDisplay:10.37,2013-06-23 08:47:00,
2013-06-23 04:52:00,70.0,69.7,30.10,SW,236,5.8,5.8,99,0.00,,,0.00,WeatherDisplay:10.37,2013-06-23 08:52:00,
2013-06-23 04:57:00,69.9,69.6,30.10,SW,236,3.5,3.5,99,0.00,,,0.00,WeatherDisplay:10.37,2013-06-23 08:57:00,
2013-06-23 05:02:00,69.8,69.5,30.10,SW,236,4.0,4.0,99,0.00,,,0.00,WeatherDisplay:10.37,2013-06-23 09:02:00,
2013-06-23 05:07:00,69.8,69.5,30.10,SW,236,3.5,3.5,99,0.00,,,0.00,WeatherDisplay:10.37,2013-06-23 09:07:00,
2013-06-23 05:13:00,69.7,69.4,30.10,SW,236,1.2,0.0,99,0.00,,,0.00,WeatherDisplay:10.37,2013-06-23 09:13:00,
2013-06-23 05:18:00,69.7,69.4,30.10,SW,236,0.0,0.0,99,0.00,,,0.00,WeatherDisplay:10.37,2013-06-23 09:18:00,
2013-06-23 05:23:00,69.7,69.4,30.10,SW,236,4.0,4.0,99,0.00,,,0.00,WeatherDisplay:10.37,2013-06-23 09:23:00,
2013-06-23 05:28:00,69.7,69.4,30.10,SW,236,3.5,3.5,99,0.00,,,0.00,WeatherDisplay:10.37,2013-06-23 09:28:00,
2013-06-23 05:33:00,69.6,69.3,30.10,SW,236,0.0,0.0,99,0.00,,,0.00,WeatherDisplay:10.37,2013-06-23 09:33:00,
2013-06-23 05:38:00,69.6,69.3,30.10,SW,236,0.0,0.0,99,0.00,,,0.00,WeatherDisplay:10.37,2013-06-23 09:38:00,
2013-06-23 05:43:00,69.5,69.2,30.10,SW,236,3.5,3.5,99,0.00,,,0.00,WeatherDisplay:10.37,2013-06-23 09:43:00,
2013-06-23 05:48:00,69.4,69.1,30.11,SW,236,0.0,0.0,99,0.00,,,0.00,WeatherDisplay:10.37,2013-06-23 09:48:00,
2013-06-23 05:53:00,69.5,69.2,30.11,SW,236,0.0,0.0,99,0.00,,,0.00,WeatherDisplay:10.37,2013-06-23 09:53:00,
2013-06-23 05:58:00,69.5,69.2,30.11,SW,236,1.2,0.0,99,0.00,,,0.00,WeatherDisplay:10.37,2013-06-23 09:58:00,
2013-06-23 06:09:00,69.4,69.1,30.11,SW,236,0.0,0.0,99,0.00,,,0.00,WeatherDisplay:10.37,2013-06-23 10:09:00,
2013-06-23 06:14:00,69.4,69.1,30.11,SW,236,0.0,0.0,99,0.00,,,0.00,WeatherDisplay:10.37,2013-06-23 10:14:00,
2013-06-23 06:19:00,69.4,69.1,30.11,SW,236,1.2,0.0,99,0.00,,,0.00,WeatherDisplay:10.37,2013-06-23 10:19:00,
2013-06-23 06:24:00,69.4,69.1,30.11,SW,236,2.3,2.3,99,0.00,,,0.00,WeatherDisplay:10.37,2013-06-23 10:24:00,
2013-06-23 06:29:00,69.3,69.0,30.11,SW,236,0.0,0.0,99,0.00,,,0.00,WeatherDisplay:10.37,2013-06-23 10:29:00,
2013-06-23 06:34:00,69.2,68.9,30.11,SW,236,2.0,2.0,99,0.00,,,0.00,WeatherDisplay:10.37,2013-06-23 10:34:00,
2013-06-23 06:39:00,69.2,68.9,30.11,SW,236,0.0,0.0,99,0.00,,,0.00,WeatherDisplay:10.37,2013-06-23 10:39:00,
2013-06-23 06:44:00,69.3,69.0,30.11,SW,236,0.0,0.0,99,0.00,,,0.00,WeatherDisplay:10.37,2013-06-23 10:44:00,
2013-06-23 06:50:00,69.2,68.9,30.11,SW,236,0.0,0.0,99,0.00,,,0.00,WeatherDisplay:10.37,2013-06-23 10:50:00,
2013-06-23 06:55:00,69.2,68.9,30.11,SW,236,1.2,0.0,99,0.00,,,0.00,WeatherDisplay:10.37,2013-06-23 10:55:00,
2013-06-23 07:00:00,69.3,69.0,30.11,SW,236,1.2,0.0,99,0.00,,,0.00,WeatherDisplay:10.37,2013-06-23 11:00:00,
2013-06-23 07:05:00,69.4,69.1,30.12,SW,236,3.5,3.5,99,0.00,,,0.00,WeatherDisplay:10.37,2013-06-23 11:05:00,
2013-06-23 07:10:00,69.5,69.2,30.12,SW,236,3.5,0.0,99,0.00,,,0.00,WeatherDisplay:10.37,2013-06-23 11:10:00,
2013-06-23 07:15:00,69.8,69.5,30.12,SW,236,4.0,4.0,99,0.00,,,0.00,WeatherDisplay:10.37,2013-06-23 11:15:00,
2013-06-23 07:20:00,69.8,69.5,30.12,SW,236,3.5,3.5,99,0.00,,,0.00,WeatherDisplay:10.37,2013-06-23 11:20:00,
2013-06-23 07:25:00,69.9,69.6,30.13,SW,236,0.0,0.0,99,0.00,,,0.00,WeatherDisplay:10.37,2013-06-23 11:25:00,
2013-06-23 07:30:00,69.9,69.6,30.13,SW,236,1.2,0.0,99,0.00,,,0.00,WeatherDisplay:10.37,2013-06-23 11:30:00,
2013-06-23 07:35:00,69.9,69.6,30.13,SW,236,0.0,0.0,99,0.00,,,0.00,WeatherDisplay:10.37,2013-06-23 11:35:00,
2013-06-23 07:40:00,70.0,69.7,30.13,SW,236,1.2,1.2,99,0.00,,,0.00,WeatherDisplay:10.37,2013-06-23 11:40:00,
2013-06-23 07:45:00,70.1,69.8,30.13,SW,236,0.0,0.0,99,0.00,,,0.00,WeatherDisplay:10.37,2013-06-23 11:45:00,
2013-06-23 07:50:00,70.3,70.0,30.13,SW,236,0.0,0.0,99,0.00,,,0.00,WeatherDisplay:10.37,2013-06-23 11:50:00,
2013-06-23 07:55:00,70.7,70.4,30.13,SW,236,1.2,1.2,99,0.00,,,0.00,WeatherDisplay:10.37,2013-06-23 11:55:00,
2013-06-23 08:00:00,70.5,70.2,30.13,SW,236,1.2,1.2,99,0.00,,,0.00,WeatherDisplay:10.37,2013-06-23 12:00:00,
2013-06-23 08:05:00,70.6,70.3,30.14,SW,236,1.2,0.0,99,0.00,,,0.00,WeatherDisplay:10.37,2013-06-23 12:05:00,
2013-06-23 08:10:00,70.8,70.5,30.14,SW,236,0.0,0.0,99,0.00,,,0.00,WeatherDisplay:10.37,2013-06-23 12:10:00,
2013-06-23 08:15:00,71.3,71.0,30.14,SW,236,0.0,0.0,99,0.00,,,0.00,WeatherDisplay:10.37,2013-06-23 12:15:00,
2013-06-23 08:20:00,71.1,70.8,30.14,SW,236,0.0,0.0,99,0.00,,,0.00,WeatherDisplay:10.37,2013-06-23 12:20:00,
2013-06-23 08:25:00,70.7,70.4,30.14,SW,236,0.0,0.0,99,0.00,,,0.00,WeatherDisplay:10.37,2013-06-23 12:25:00,
2013-06-23 08:30:00,70.9,70.6,30.14,SW,236,0.0,0.0,99,0.00,,,0.00,WeatherDisplay:10.37,2013-06-23 12:30:00,
2013-06-23 08:35:00,71.3,71.0,30.14,ESE,115,0.0,0.0,99,0.00,,,0.00,WeatherDisplay:10.37,2013-06-23 12:35:00,
2013-06-23 08:40:00,71.1,70.8,30.14,East,86,0.0,0.0,99,0.00,,,0.00,WeatherDisplay:10.37,2013-06-23 12:40:00,
2013-06-23 08:45:00,71.5,71.2,30.15,SE,130,0.0,0.0,99,0.00,,,0.00,WeatherDisplay:10.37,2013-06-23 12:45:00,
2013-06-23 08:50:00,71.8,71.5,30.15,NNE,15,1.2,0.0,99,0.00,,,0.00,WeatherDisplay:10.37,2013-06-23 12:50:00,
2013-06-23 08:56:00,72.0,71.7,30.16,NNE,32,0.0,0.0,99,0.00,,,0.00,WeatherDisplay:10.37,2013-06-23 12:56:00,
2013-06-23 09:01:00,72.1,71.8,30.16,NNE,32,0.0,0.0,99,0.00,,,0.00,WeatherDisplay:10.37,2013-06-23 13:01:00,
2013-06-23 09:06:00,72.3,72.0,30.16,NNE,32,0.0,0.0,99,0.00,,,0.00,WeatherDisplay:10.37,2013-06-23 13:06:00,
2013-06-23 09:11:00,73.2,72.9,30.16,SE,139,4.6,4.6,99,0.00,,,0.00,WeatherDisplay:10.37,2013-06-23 13:11:00,
2013-06-23 09:16:00,72.9,72.6,30.16,SW,217,4.6,4.6,99,0.00,,,0.00,WeatherDisplay:10.37,2013-06-23 13:16:00,
2013-06-23 09:21:00,73.2,72.9,30.17,SW,217,1.2,0.0,99,0.00,,,0.00,WeatherDisplay:10.37,2013-06-23 13:21:00,
2013-06-23 09:26:00,73.2,72.9,30.17,SSW,200,1.2,1.2,99,0.00,,,0.00,WeatherDisplay:10.37,2013-06-23 13:26:00,
2013-06-23 09:31:00,73.3,73.0,30.16,SSW,199,3.5,3.5,99,0.00,,,0.00,WeatherDisplay:10.37,2013-06-23 13:31:00,
2013-06-23 09:36:00,73.3,73.0,30.16,SSW,200,0.0,0.0,99,0.00,,,0.00,WeatherDisplay:10.37,2013-06-23 13:36:00,
2013-06-23 09:41:00,73.7,73.1,30.17,SSW,200,3.5,3.5,98,0.00,,,0.00,WeatherDisplay:10.37,2013-06-23 13:41:00,
2013-06-23 09:46:00,73.6,72.4,30.17,SSW,201,1.2,0.0,96,0.00,,,0.00,WeatherDisplay:10.37,2013-06-23 13:46:00,
2013-06-23 09:51:00,74.0,73.4,30.16,SSW,201,4.0,4.0,98,0.00,,,0.00,WeatherDisplay:10.37,2013-06-23 13:51:00,
2013-06-23 09:57:00,74.1,72.9,30.16,SSW,211,3.5,3.5,96,0.00,,,0.00,WeatherDisplay:10.37,2013-06-23 13:57:00,
2013-06-23 10:02:00,74.4,72.9,30.16,SSW,211,0.0,0.0,95,0.00,,,0.00,WeatherDisplay:10.37,2013-06-23 14:02:00,
2013-06-23 10:07:00,74.7,73.2,30.16,SE,138,1.2,0.0,95,0.00,,,0.00,WeatherDisplay:10.37,2013-06-23 14:07:00,
2013-06-23 10:12:00,75.0,72.8,30.16,SE,139,1.2,0.0,93,0.00,,,0.00,WeatherDisplay:10.37,2013-06-23 14:12:00,
2013-06-23 10:17:00,75.4,73.2,30.16,SE,146,1.0,1.0,93,0.00,,,0.00,WeatherDisplay:10.37,2013-06-23 14:17:00,
2013-06-23 10:22:00,76.1,73.6,30.16,West,269,6.0,6.0,92,0.00,,,0.00,WeatherDisplay:10.37,2013-06-23 14:22:00,
2013-06-23 10:27:00,76.4,72.9,30.15,SSW,200,1.2,1.2,89,0.00,,,0.00,WeatherDisplay:10.37,2013-06-23 14:27:00,
2013-06-23 10:32:00,77.3,73.8,30.15,SSW,210,4.0,4.0,89,0.00,,,0.00,WeatherDisplay:10.37,2013-06-23 14:32:00,
2013-06-23 10:37:00,77.1,73.3,30.15,WSW,253,3.5,3.5,88,0.00,,,0.00,WeatherDisplay:10.37,2013-06-23 14:37:00,
2013-06-23 10:42:00,77.4,73.2,30.15,SW,225,3.0,3.0,87,0.00,,,0.00,WeatherDisplay:10.37,2013-06-23 14:42:00,
2013-06-23 10:47:00,78.7,74.8,30.15,WSW,252,1.2,1.2,88,0.00,,,0.00,WeatherDisplay:10.37,2013-06-23 14:47:00,
2013-06-23 10:53:00,78.1,73.6,30.15,WSW,258,5.0,5.0,86,0.00,,,0.00,WeatherDisplay:10.37,2013-06-23 14:53:00,
2013-06-23 10:58:00,78.5,74.3,30.16,SSW,192,6.0,6.0,87,0.00,,,0.00,WeatherDisplay:10.37,2013-06-23 14:58:00,
2013-06-23 11:03:00,78.5,73.6,30.16,West,271,5.8,5.8,85,0.00,,,0.00,WeatherDisplay:10.37,2013-06-23 15:03:00,
2013-06-23 11:08:00,79.0,75.1,30.15,West,271,4.6,4.6,88,0.00,,,0.00,WeatherDisplay:10.37,2013-06-23 15:08:00,
2013-06-23 11:13:00,79.5,74.9,30.16,SW,230,3.5,3.5,86,0.00,,,0.00,WeatherDisplay:10.37,2013-06-23 15:13:00,
2013-06-23 11:18:00,79.5,74.2,30.16,WNW,284,3.5,3.5,84,0.00,,,0.00,WeatherDisplay:10.37,2013-06-23 15:18:00,
2013-06-23 11:23:00,79.6,73.3,30.16,WNW,292,1.0,0.0,81,0.00,,,0.00,WeatherDisplay:10.37,2013-06-23 15:23:00,
2013-06-23 11:29:00,79.2,74.3,30.16,WNW,293,1.2,0.0,85,0.00,,,0.00,WeatherDisplay:10.37,2013-06-23 15:29:00,
2013-06-23 11:34:00,79.5,73.5,30.16,WNW,292,3.5,3.5,82,0.00,,,0.00,WeatherDisplay:10.37,2013-06-23 15:34:00,
2013-06-23 11:39:00,79.9,73.5,30.16,WNW,293,0.0,0.0,81,0.00,,,0.00,WeatherDisplay:10.37,2013-06-23 15:39:00,
2013-06-23 11:44:00,80.3,73.6,30.16,SSW,198,4.6,4.6,80,0.00,,,0.00,WeatherDisplay:10.37,2013-06-23 15:44:00,
2013-06-23 11:49:00,80.0,73.6,30.16,SSW,198,0.0,0.0,81,0.00,,,0.00,WeatherDisplay:10.37,2013-06-23 15:49:00,
2013-06-23 11:54:00,80.1,73.0,30.15,SSW,213,0.0,0.0,79,0.00,,,0.00,WeatherDisplay:10.37,2013-06-23 15:54:00,
2013-06-23 11:59:00,80.6,73.5,30.15,West,266,3.5,3.5,79,0.00,,,0.00,WeatherDisplay:10.37,2013-06-23 15:59:00,
2013-06-23 12:04:00,80.3,73.9,30.15,West,266,0.0,0.0,81,0.00,,,0.00,WeatherDisplay:10.37,2013-06-23 16:04:00,
2013-06-23 12:09:00,81.1,74.3,30.15,South,173,3.5,3.5,80,0.00,,,0.00,WeatherDisplay:10.37,2013-06-23 16:09:00,
2013-06-23 12:14:00,81.5,74.0,30.15,South,173,1.2,1.2,78,0.00,,,0.00,WeatherDisplay:10.37,2013-06-23 16:14:00,
2013-06-23 12:19:00,81.0,71.5,30.14,South,173,0.0,0.0,73,0.00,,,0.00,WeatherDisplay:10.37,2013-06-23 16:19:00,
2013-06-23 12:24:00,80.5,73.0,30.14,South,175,1.2,1.2,78,0.00,,,0.00,WeatherDisplay:10.37,2013-06-23 16:24:00,
2013-06-23 12:29:00,80.5,73.4,30.14,WSW,247,7.0,7.0,79,0.00,,,0.00,WeatherDisplay:10.37,2013-06-23 16:29:00,
2013-06-23 12:35:00,81.5,73.2,30.14,South,169,3.5,3.5,76,0.00,,,0.00,WeatherDisplay:10.37,2013-06-23 16:35:00,
2013-06-23 12:40:00,82.2,72.7,30.14,SW,218,3.5,0.0,73,0.00,,,0.00,WeatherDisplay:10.37,2013-06-23 16:40:00,
2013-06-23 12:45:00,83.1,74.7,30.14,SSW,209,4.0,4.0,76,0.00,,,0.00,WeatherDisplay:10.37,2013-06-23 16:45:00,
2013-06-23 12:50:00,82.7,73.2,30.13,SSW,210,3.5,3.5,73,0.00,,,0.00,WeatherDisplay:10.37,2013-06-23 16:50:00,
2013-06-23 12:55:00,83.3,75.3,30.13,SE,134,1.2,0.0,77,0.00,,,0.00,WeatherDisplay:10.37,2013-06-23 16:55:00,
2013-06-23 12:57:00,83.3,73.7,30.13,SE,141,3.5,3.5,73,0.00,,,0.00,WeatherDisplay:10.37,2013-06-23 16:57:00,
2013-06-23 12:58:00,83.3,72.9,30.13,SE,142,3.5,3.5,71,0.00,,,0.00,WeatherDisplay:10.37,2013-06-23 16:58:00,
2013-06-23 13:03:00,83.7,74.1,30.13,SW,225,4.6,4.6,73,0.00,,,0.00,WeatherDisplay:10.37,2013-06-23 17:03:00,
2013-06-23 13:08:00,83.7,74.1,30.13,SW,228,5.0,5.0,73,0.00,,,0.00,WeatherDisplay:10.37,2013-06-23 17:08:00,
2013-06-23 13:14:00,84.1,73.7,30.12,SSW,200,4.0,4.0,71,0.00,,,0.00,WeatherDisplay:10.37,2013-06-23 17:14:00,
2013-06-23 13:19:00,83.7,74.1,30.12,SW,224,0.0,0.0,73,0.00,,,0.00,WeatherDisplay:10.37,2013-06-23 17:19:00,
2013-06-23 13:24:00,83.5,73.1,30.12,SSW,192,4.0,4.0,71,0.00,,,0.00,WeatherDisplay:10.37,2013-06-23 17:24:00,
2013-06-23 13:29:00,83.0,74.3,30.12,SSW,211,3.5,3.5,75,0.00,,,0.00,WeatherDisplay:10.37,2013-06-23 17:29:00,
2013-06-23 13:34:00,83.0,74.3,30.12,SSW,211,5.0,5.0,75,0.00,,,0.00,WeatherDisplay:10.37,2013-06-23 17:34:00,
2013-06-23 13:39:00,83.1,73.5,30.12,WSW,253,2.3,2.3,73,0.00,,,0.00,WeatherDisplay:10.37,2013-06-23 17:39:00,
2013-06-23 13:44:00,82.8,73.3,30.12,South,188,2.3,2.3,73,0.00,,,0.00,WeatherDisplay:10.37,2013-06-23 17:44:00,
2013-06-23 13:49:00,82.7,74.0,30.11,SE,139,1.2,1.2,75,0.00,,,0.00,WeatherDisplay:10.37,2013-06-23 17:49:00,
2013-06-23 13:54:00,82.5,74.2,30.12,SSW,198,3.5,3.5,76,0.00,,,0.00,WeatherDisplay:10.37,2013-06-23 17:54:00,
2013-06-23 13:59:00,82.5,74.9,30.12,SSE,157,1.2,1.2,78,0.00,,,0.00,WeatherDisplay:10.37,2013-06-23 17:59:00,
2013-06-23 14:04:00,82.4,74.5,30.12,SSE,165,5.8,5.8,77,0.00,,,0.00,WeatherDisplay:10.37,2013-06-23 18:04:00,
2013-06-23 14:09:00,82.2,75.0,30.12,South,178,7.0,7.0,79,0.00,,,0.00,WeatherDisplay:10.37,2013-06-23 18:09:00,
2013-06-23 14:14:00,81.9,74.4,30.12,South,191,6.0,6.0,78,0.00,,,0.00,WeatherDisplay:10.37,2013-06-23 18:14:00,
2013-06-23 14:19:00,81.8,75.0,30.11,SSW,205,4.6,4.6,80,0.00,,,0.00,WeatherDisplay:10.37,2013-06-23 18:19:00,
2013-06-23 14:24:00,81.7,74.5,30.11,SW,236,3.5,3.5,79,0.00,,,0.00,WeatherDisplay:10.37,2013-06-23 18:24:00,
2013-06-23 14:29:00,81.5,74.4,30.11,SW,236,4.6,4.6,79,0.00,,,0.00,WeatherDisplay:10.37,2013-06-23 18:29:00,
2013-06-23 14:34:00,81.4,74.6,30.11,SW,215,3.5,3.5,80,0.00,,,0.00,WeatherDisplay:10.37,2013-06-23 18:34:00,
2013-06-23 14:39:00,81.5,74.0,30.11,SW,214,4.0,4.0,78,0.00,,,0.00,WeatherDisplay:10.37,2013-06-23 18:39:00,
2013-06-23 14:44:00,81.7,74.9,30.11,SW,215,6.0,6.0,80,0.00,,,0.00,WeatherDisplay:10.37,2013-06-23 18:44:00,
2013-06-23 14:49:00,81.6,74.5,30.11,South,184,9.0,9.0,79,0.00,,,0.00,WeatherDisplay:10.37,2013-06-23 18:49:00,
2013-06-23 14:54:00,81.3,74.5,30.11,SSW,196,5.8,5.8,80,0.00,,,0.00,WeatherDisplay:10.37,2013-06-23 18:54:00,
2013-06-23 14:59:00,81.2,74.4,30.11,SW,217,6.0,6.0,80,0.00,,,0.00,WeatherDisplay:10.37,2013-06-23 18:59:00,
2013-06-23 15:04:00,81.0,74.6,30.11,SSW,192,5.0,5.0,81,0.00,,,0.00,WeatherDisplay:10.37,2013-06-23 19:04:00,
2013-06-23 15:09:00,81.2,74.8,30.10,SSW,202,9.0,9.0,81,0.00,,,0.00,WeatherDisplay:10.37,2013-06-23 19:09:00,
2013-06-23 15:14:00,81.9,75.1,30.10,SSW,204,8.0,8.0,80,0.00,,,0.00,WeatherDisplay:10.37,2013-06-23 19:14:00,
2013-06-23 15:19:00,82.4,74.8,30.10,South,172,7.0,7.0,78,0.00,,,0.00,WeatherDisplay:10.37,2013-06-23 19:19:00,
2013-06-23 15:24:00,82.5,73.0,30.09,SSW,194,4.6,4.6,73,0.00,,,0.00,WeatherDisplay:10.37,2013-06-23 19:24:00,
2013-06-23 15:30:00,82.5,73.0,30.09,SW,225,3.5,3.5,73,0.00,,,0.00,WeatherDisplay:10.37,2013-06-23 19:30:00,
2013-06-23 15:35:00,82.2,72.3,30.08,SSW,193,5.8,5.8,72,0.00,,,0.00,WeatherDisplay:10.37,2013-06-23 19:35:00,
2013-06-23 15:40:00,82.4,73.7,30.08,South,190,5.8,5.8,75,0.00,,,0.00,WeatherDisplay:10.37,2013-06-23 19:40:00,
2013-06-23 15:45:00,82.6,73.1,30.08,SW,223,5.8,5.8,73,0.00,,,0.00,WeatherDisplay:10.37,2013-06-23 19:45:00,
2013-06-23 15:50:00,82.9,74.6,30.08,SW,219,5.8,5.8,76,0.00,,,0.00,WeatherDisplay:10.37,2013-06-23 19:50:00,
2013-06-23 15:55:00,82.4,72.9,30.08,SW,218,3.5,3.5,73,0.00,,,0.00,WeatherDisplay:10.37,2013-06-23 19:55:00,
2013-06-23 16:00:00,82.5,74.9,30.08,SSE,163,5.0,5.0,78,0.00,,,0.00,WeatherDisplay:10.37,2013-06-23 20:00:00,
2013-06-23 16:05:00,82.1,74.2,30.08,SSW,194,4.6,4.6,77,0.00,,,0.00,WeatherDisplay:10.37,2013-06-23 20:05:00,
2013-06-23 16:10:00,81.6,74.8,30.08,SE,127,5.8,5.8,80,0.00,,,0.00,WeatherDisplay:10.37,2013-06-23 20:10:00,
2013-06-23 16:15:00,81.3,74.5,30.08,SE,128,4.6,4.6,80,0.00,,,0.00,WeatherDisplay:10.37,2013-06-23 20:15:00,
2013-06-23 16:20:00,81.1,74.7,30.08,ESE,119,6.0,6.0,81,0.00,,,0.00,WeatherDisplay:10.37,2013-06-23 20:20:00,
2013-06-23 16:25:00,80.9,74.5,30.08,SE,144,5.0,5.0,81,0.00,,,0.00,WeatherDisplay:10.37,2013-06-23 20:25:00,
2013-06-23 16:30:00,80.9,74.5,30.08,South,183,5.0,5.0,81,0.00,,,0.00,WeatherDisplay:10.37,2013-06-23 20:30:00,
2013-06-23 16:35:00,81.0,74.6,30.08,SSE,168,4.6,4.6,81,0.00,,,0.00,WeatherDisplay:10.37,2013-06-23 20:35:00,
2013-06-23 16:40:00,81.1,74.3,30.08,ESE,121,6.0,6.0,80,0.00,,,0.00,WeatherDisplay:10.37,2013-06-23 20:40:00,
2013-06-23 16:45:00,81.7,74.9,30.08,SSE,168,4.6,4.6,80,0.00,,,0.00,WeatherDisplay:10.37,2013-06-23 20:45:00,
2013-06-23 16:50:00,82.4,75.6,30.08,SE,136,5.8,5.8,80,0.00,,,0.00,WeatherDisplay:10.37,2013-06-23 20:50:00,
2013-06-23 16:55:00,82.1,74.2,30.07,SSW,192,5.8,5.8,77,0.00,,,0.00,WeatherDisplay:10.37,2013-06-23 20:55:00,
2013-06-23 17:00:00,82.5,74.9,30.07,SSE,165,4.0,4.0,78,0.00,,,0.00,WeatherDisplay:10.37,2013-06-23 21:00:00,
2013-06-23 17:05:00,83.2,74.8,30.07,SE,132,6.0,6.0,76,0.00,,,0.00,WeatherDisplay:10.37,2013-06-23 21:05:00,
2013-06-23 17:10:00,83.3,73.7,30.07,SW,225,5.0,5.0,73,0.00,,,0.00,WeatherDisplay:10.37,2013-06-23 21:10:00,
2013-06-23 17:15:00,82.9,74.6,30.07,SW,225,5.8,5.8,76,0.00,,,0.00,WeatherDisplay:10.37,2013-06-23 21:15:00,
2013-06-23 17:20:00,82.0,72.5,30.07,ESE,118,6.0,6.0,73,0.00,,,0.00,WeatherDisplay:10.37,2013-06-23 21:20:00,
2013-06-23 17:25:00,81.6,73.3,30.08,South,182,3.5,3.5,76,0.00,,,0.00,WeatherDisplay:10.37,2013-06-23 21:25:00,
2013-06-23 17:30:00,81.2,72.9,30.08,SE,144,3.5,3.5,76,0.00,,,0.00,WeatherDisplay:10.37,2013-06-23 21:30:00,
2013-06-23 17:35:00,80.9,72.6,30.08,SSE,167,5.0,5.0,76,0.00,,,0.00,WeatherDisplay:10.37,2013-06-23 21:35:00,
2013-06-23 17:40:00,80.7,72.8,30.08,SSE,167,4.0,4.0,77,0.00,,,0.00,WeatherDisplay:10.37,2013-06-23 21:40:00,
2013-06-23 17:45:00,80.4,72.9,30.08,SSE,167,3.0,3.0,78,0.00,,,0.00,WeatherDisplay:10.37,2013-06-23 21:45:00,
2013-06-23 17:50:00,80.0,72.9,30.08,SSE,163,3.5,3.5,79,0.00,,,0.00,WeatherDisplay:10.37,2013-06-23 21:50:00,
2013-06-23 17:55:00,79.4,72.7,30.08,South,175,1.2,0.0,80,0.00,,,0.00,WeatherDisplay:10.37,2013-06-23 21:55:00,
2013-06-23 18:00:00,79.2,74.3,30.08,South,175,0.0,0.0,85,0.00,,,0.00,WeatherDisplay:10.37,2013-06-23 22:00:00,
2013-06-23 18:05:00,78.5,74.0,30.08,South,175,0.0,0.0,86,0.00,,,0.00,WeatherDisplay:10.37,2013-06-23 22:05:00,
2013-06-23 18:10:00,78.1,73.9,30.08,South,175,0.0,0.0,87,0.00,,,0.00,WeatherDisplay:10.37,2013-06-23 22:10:00,
2013-06-23 18:15:00,78.4,74.5,30.08,SE,136,0.0,0.0,88,0.00,,,0.00,WeatherDisplay:10.37,2013-06-23 22:15:00,
2013-06-23 18:20:00,79.0,75.1,30.08,SE,136,0.0,0.0,88,0.00,,,0.00,WeatherDisplay:10.37,2013-06-23 22:20:00,
2013-06-23 18:25:00,80.1,75.9,30.08,SE,136,0.0,0.0,87,0.00,,,0.00,WeatherDisplay:10.37,2013-06-23 22:25:00,
2013-06-23 18:30:00,81.3,74.9,30.08,SE,136,0.0,0.0,81,0.00,,,0.00,WeatherDisplay:10.37,2013-06-23 22:30:00,
2013-06-23 18:35:00,81.5,74.7,30.08,SE,136,0.0,0.0,80,0.00,,,0.00,WeatherDisplay:10.37,2013-06-23 22:35:00,
2013-06-23 18:40:00,81.5,74.7,30.08,SE,136,2.3,2.3,80,0.00,,,0.00,WeatherDisplay:10.37,2013-06-23 22:40:00,
2013-06-23 18:45:00,81.3,74.5,30.08,SE,136,3.5,3.5,80,0.00,,,0.00,WeatherDisplay:10.37,2013-06-23 22:45:00,
2013-06-23 18:50:00,81.2,74.8,30.08,East,95,1.2,1.2,81,0.00,,,0.00,WeatherDisplay:10.37,2013-06-23 22:50:00,
2013-06-23 18:55:00,81.1,75.1,30.08,ESE,109,1.2,0.0,82,0.00,,,0.00,WeatherDisplay:10.37,2013-06-23 22:55:00,
2013-06-23 19:00:00,81.1,75.1,30.08,SSE,160,3.5,3.5,82,0.00,,,0.00,WeatherDisplay:10.37,2013-06-23 23:00:00,
2013-06-23 19:05:00,81.1,74.7,30.08,SSW,194,2.3,2.3,81,0.00,,,0.00,WeatherDisplay:10.37,2013-06-23 23:05:00,
2013-06-23 19:10:00,81.1,74.7,30.07,SSW,194,4.6,4.6,81,0.00,,,0.00,WeatherDisplay:10.37,2013-06-23 23:10:00,
2013-06-23 19:15:00,81.0,74.6,30.08,SSW,194,1.2,1.2,81,0.00,,,0.00,WeatherDisplay:10.37,2013-06-23 23:15:00,
2013-06-23 19:20:00,80.5,75.2,30.08,SSW,194,1.2,0.0,84,0.00,,,0.00,WeatherDisplay:10.37,2013-06-23 23:20:00,
2013-06-23 19:26:00,80.1,75.5,30.08,SSW,194,0.0,0.0,86,0.00,,,0.00,WeatherDisplay:10.37,2013-06-23 23:26:00,
2013-06-23 19:31:00,79.8,75.6,30.08,SSW,194,0.0,0.0,87,0.00,,,0.00,WeatherDisplay:10.37,2013-06-23 23:31:00,
2013-06-23 19:36:00,79.5,76.0,30.08,SSW,194,0.0,0.0,89,0.00,,,0.00,WeatherDisplay:10.37,2013-06-23 23:36:00,
2013-06-23 19:41:00,79.6,76.1,30.08,SSW,194,0.0,0.0,89,0.00,,,0.00,WeatherDisplay:10.37,2013-06-23 23:41:00,
2013-06-23 19:46:00,79.6,76.1,30.08,SSW,194,0.0,0.0,89,0.00,,,0.00,WeatherDisplay:10.37,2013-06-23 23:46:00,
2013-06-23 19:51:00,79.6,76.7,30.08,SSW,194,1.0,1.0,91,0.00,,,0.00,WeatherDisplay:10.37,2013-06-23 23:51:00,
2013-06-23 19:56:00,79.7,76.8,30.08,SSW,195,0.0,0.0,91,0.00,,,0.00,WeatherDisplay:10.37,2013-06-23 23:56:00,
2013-06-23 20:01:00,79.5,76.6,30.08,SSW,195,1.0,0.0,91,0.00,,,0.00,WeatherDisplay:10.37,2013-06-24 00:01:00,
2013-06-23 20:06:00,79.4,76.5,30.08,SSW,202,2.3,2.3,91,0.00,,,0.00,WeatherDisplay:10.37,2013-06-24 00:06:00,
2013-06-23 20:11:00,79.4,76.5,30.08,East,100,2.3,2.3,91,0.00,,,0.00,WeatherDisplay:10.37,2013-06-24 00:11:00,
2013-06-23 20:16:00,79.1,75.6,30.08,East,100,4.0,4.0,89,0.00,,,0.00,WeatherDisplay:10.37,2013-06-24 00:16:00,
2013-06-23 20:21:00,79.0,76.1,30.09,East,90,9.0,9.0,91,0.00,,,0.00,WeatherDisplay:10.37,2013-06-24 00:21:00,
2013-06-23 20:26:00,78.8,74.9,30.09,SSW,196,7.0,7.6,88,0.00,,,0.00,WeatherDisplay:10.37,2013-06-24 00:26:00,
2013-06-23 20:31:00,78.7,74.5,30.09,SSW,192,4.6,4.6,87,0.00,,,0.00,WeatherDisplay:10.37,2013-06-24 00:31:00,
2013-06-23 20:36:00,78.4,73.2,30.09,West,273,5.8,5.8,84,0.00,,,0.00,WeatherDisplay:10.37,2013-06-24 00:36:00,
2013-06-23 20:41:00,78.1,72.9,30.08,SSW,203,4.0,4.0,84,0.00,,,0.00,WeatherDisplay:10.37,2013-06-24 00:41:00,
2013-06-23 20:46:00,77.6,71.7,30.08,SW,221,5.8,5.8,82,0.00,,,0.00,WeatherDisplay:10.37,2013-06-24 00:46:00,
2013-06-23 20:51:00,77.2,71.3,30.08,SSW,212,1.2,0.0,82,0.00,,,0.00,WeatherDisplay:10.37,2013-06-24 00:51:00,
2013-06-23 20:56:00,76.8,71.6,30.08,SSW,200,5.0,5.0,84,0.00,,,0.00,WeatherDisplay:10.37,2013-06-24 00:56:00,
2013-06-23 21:01:00,76.5,71.7,30.08,SSW,199,3.5,3.5,85,0.00,,,0.00,WeatherDisplay:10.37,2013-06-24 01:01:00,
2013-06-23 21:06:00,76.2,71.7,30.08,SSW,199,0.0,0.0,86,0.00,,,0.00,WeatherDisplay:10.37,2013-06-24 01:06:00,
2013-06-23 21:11:00,75.8,71.7,30.08,SSW,200,3.5,3.5,87,0.00,,,0.00,WeatherDisplay:10.37,2013-06-24 01:11:00,
2013-06-23 21:16:00,75.6,71.5,30.09,SSW,200,0.0,0.0,87,0.00,,,0.00,WeatherDisplay:10.37,2013-06-24 01:16:00,
2013-06-23 21:21:00,75.4,71.6,30.09,SSW,200,0.0,0.0,88,0.00,,,0.00,WeatherDisplay:10.37,2013-06-24 01:21:00,
2013-06-23 21:26:00,74.9,72.1,30.09,SSW,200,1.2,1.2,91,0.00,,,0.00,WeatherDisplay:10.37,2013-06-24 01:26:00,
2013-06-23 21:31:00,74.8,72.0,30.10,SSW,200,0.0,0.0,91,0.00,,,0.00,WeatherDisplay:10.37,2013-06-24 01:31:00,
2013-06-23 21:32:00,74.8,72.0,30.10,SSW,200,0.0,0.0,91,0.00,,,0.00,WeatherDisplay:10.37,2013-06-24 01:32:00,
2013-06-23 21:37:00,74.9,72.1,30.10,SSW,200,0.0,0.0,91,0.00,,,0.00,WeatherDisplay:10.37,2013-06-24 01:37:00,
2013-06-23 21:42:00,75.1,72.6,30.10,SSW,200,2.3,2.3,92,0.00,,,0.00,WeatherDisplay:10.37,2013-06-24 01:42:00,
2013-06-23 21:47:00,75.2,72.7,30.10,SSW,200,0.0,0.0,92,0.00,,,0.00,WeatherDisplay:10.37,2013-06-24 01:47:00,
2013-06-23 21:52:00,75.1,72.6,30.10,SSW,200,0.0,0.0,92,0.00,,,0.00,WeatherDisplay:10.37,2013-06-24 01:52:00,
2013-06-23 21:57:00,75.1,72.6,30.09,SSW,200,0.0,0.0,92,0.00,,,0.00,WeatherDisplay:10.37,2013-06-24 01:57:00,
2013-06-23 22:02:00,75.0,72.5,30.09,SSW,200,0.0,0.0,92,0.00,,,0.00,WeatherDisplay:10.37,2013-06-24 02:02:00,
2013-06-23 22:07:00,74.9,72.7,30.09,SSW,200,1.2,0.0,93,0.00,,,0.00,WeatherDisplay:10.37,2013-06-24 02:07:00,
2013-06-23 22:12:00,74.8,72.6,30.09,SSW,200,0.0,0.0,93,0.00,,,0.00,WeatherDisplay:10.37,2013-06-24 02:12:00,
2013-06-23 22:17:00,74.6,72.4,30.09,SSW,200,0.0,0.0,93,0.00,,,0.00,WeatherDisplay:10.37,2013-06-24 02:17:00,
2013-06-23 22:22:00,74.5,72.7,30.10,SSW,200,0.0,0.0,94,0.00,,,0.00,WeatherDisplay:10.37,2013-06-24 02:22:00,
2013-06-23 22:27:00,74.4,72.6,30.10,SSW,200,0.0,0.0,94,0.00,,,0.00,WeatherDisplay:10.37,2013-06-24 02:27:00,
2013-06-23 22:32:00,74.2,72.4,30.10,SSW,200,0.0,0.0,94,0.00,,,0.00,WeatherDisplay:10.37,2013-06-24 02:32:00,
2013-06-23 22:37:00,74.2,72.7,30.10,SSW,200,3.5,3.5,95,0.00,,,0.00,WeatherDisplay:10.37,2013-06-24 02:37:00,
2013-06-23 22:42:00,74.2,72.7,30.10,SSW,200,0.0,0.0,95,0.00,,,0.00,WeatherDisplay:10.37,2013-06-24 02:42:00,
2013-06-23 22:47:00,74.3,72.8,30.11,SSW,200,0.0,0.1,95,0.00,,,0.00,WeatherDisplay:10.37,2013-06-24 02:47:00,
2013-06-23 22:52:00,74.4,72.9,30.11,SSW,200,2.3,2.3,95,0.00,,,0.00,WeatherDisplay:10.37,2013-06-24 02:52:00,
2013-06-23 22:57:00,74.5,73.3,30.11,SSW,200,2.0,2.0,96,0.00,,,0.00,WeatherDisplay:10.37,2013-06-24 02:57:00,
2013-06-23 23:02:00,74.5,73.3,30.11,SSW,200,0.0,0.0,96,0.00,,,0.00,WeatherDisplay:10.37,2013-06-24 03:02:00,
2013-06-23 23:08:00,74.5,73.3,30.10,SSW,200,1.2,0.0,96,0.00,,,0.00,WeatherDisplay:10.37,2013-06-24 03:08:00,
2013-06-23 23:13:00,74.5,73.3,30.10,SSW,200,0.0,0.0,96,0.00,,,0.00,WeatherDisplay:10.37,2013-06-24 03:13:00,
2013-06-23 23:18:00,74.4,73.2,30.10,SSW,200,0.0,0.0,96,0.00,,,0.00,WeatherDisplay:10.37,2013-06-24 03:18:00,
2013-06-23 23:23:00,74.4,73.2,30.10,SSW,200,1.2,1.2,96,0.00,,,0.00,WeatherDisplay:10.37,2013-06-24 03:23:00,
2013-06-23 23:28:00,74.4,73.2,30.10,SSW,200,1.2,1.2,96,0.00,,,0.00,WeatherDisplay:10.37,2013-06-24 03:28:00,
2013-06-23 23:33:00,74.3,73.1,30.11,SSW,200,1.2,0.0,96,0.00,,,0.00,WeatherDisplay:10.37,2013-06-24 03:33:00,
2013-06-23 23:38:00,74.2,73.0,30.11,SSW,200,0.0,0.0,96,0.00,,,0.00,WeatherDisplay:10.37,2013-06-24 03:38:00,
2013-06-23 23:43:00,74.2,73.0,30.11,SSW,200,0.0,0.0,96,0.00,,,0.00,WeatherDisplay:10.37,2013-06-24 03:43:00,
2013-06-23 23:48:00,73.8,72.6,30.11,SSW,200,0.0,0.0,96,0.00,,,0.00,WeatherDisplay:10.37,2013-06-24 03:48:00,
2013-06-23 23:53:00,73.7,72.5,30.11,SSW,200,0.0,0.0,96,0.00,,,0.00,WeatherDisplay:10.37,2013-06-24 03:53:00,
2013-06-23 23:58:00,73.9,73.3,30.11,SSW,200,0.0,0.0,98,0.00,,,0.00,WeatherDisplay:10.37,2013-06-24 03:58:00,